Tiempo cada hora Multai

Hoy, 22 Octubre, Jueves

Tiempo Temperatura Precipitaciones Viento Presión Humedad
00:00 +21°C° 0 mm 2 mps 692 mmHg 62%
01:00 +21°C° 0 mm 2 mps 692 mmHg 59%
02:00 +20°C° 0 mm 2 mps 692 mmHg 57%
03:00 +20°C° 0 mm 2 mps 692 mmHg 54%
04:00 +20°C° 0 mm 2 mps 692 mmHg 52%
05:00 +20°C° 0 mm 2 mps 692 mmHg 51%
06:00 +23°C° 0 mm 2 mps 693 mmHg 51%
07:00 +24°C° 0 mm 1 mps 694 mmHg 51%
08:00 +26°C° 0 mm 1 mps 694 mmHg 51%
09:00 +27°C° 0 mm 1 mps 694 mmHg 47%
10:00 +28°C° 0 mm 1 mps 694 mmHg 44%
11:00 +29°C° 0 mm 1 mps 694 mmHg 40%
12:00 +30°C° 0 mm 1 mps 694 mmHg 40%
13:00 +30°C° 0 mm 1 mps 693 mmHg 41%
14:00 +30°C° 0 mm 1 mps 693 mmHg 41%
15:00 +29°C° 0 mm 1 mps 692 mmHg 49%
16:00 +27°C° 0 mm 1 mps 692 mmHg 56%
17:00 +26°C° 0 mm 1 mps 692 mmHg 63%
18:00 +25°C° 0 mm 1 mps 692 mmHg 64%
19:00 +24°C° 0 mm 1 mps 693 mmHg 64%
20:00 +23°C° 0 mm 1 mps 693 mmHg 64%
21:00 +23°C° 0 mm 1 mps 693 mmHg 63%
22:00 +23°C° 0 mm 1 mps 693 mmHg 63%
23:00 +21°C° 0 mm 0 mps 693 mmHg 62%

Mañana, 23 Octubre, Viernes

Tiempo Temperatura Precipitaciones Viento Presión Humedad
00:00 +20°C° 0 mm 0 mps 692 mmHg 62%
01:00 +20°C° 0 mm 0 mps 692 mmHg 62%
02:00 +20°C° 0 mm 0 mps 692 mmHg 62%
03:00 +19°C° 0 mm 0 mps 692 mmHg 61%
04:00 +19°C° 0 mm 0 mps 692 mmHg 60%
05:00 +19°C° 0 mm 0 mps 692 mmHg 60%
06:00 +23°C° 0 mm 1 mps 693 mmHg 59%
07:00 +24°C° 0 mm 1 mps 693 mmHg 58%
08:00 +26°C° 0 mm 1 mps 694 mmHg 57%
09:00 +27°C° 0 mm 1 mps 694 mmHg 52%
10:00 +28°C° 0 mm 1 mps 694 mmHg 47%
11:00 +30°C° 0 mm 1 mps 694 mmHg 42%
12:00 +30°C° 0 mm 1 mps 694 mmHg 42%
13:00 +30°C° 0 mm 2 mps 693 mmHg 42%
14:00 +30°C° 0 mm 2 mps 693 mmHg 42%
15:00 +29°C° 0 mm 2 mps 692 mmHg 49%
16:00 +28°C° 0 mm 2 mps 692 mmHg 56%
17:00 +26°C° 0 mm 2 mps 692 mmHg 63%
18:00 +25°C° 0 mm 1 mps 692 mmHg 63%
19:00 +25°C° 0 mm 1 mps 693 mmHg 62%
20:00 +24°C° 0 mm 1 mps 693 mmHg 61%
21:00 +24°C° 0 mm 1 mps 693 mmHg 62%
22:00 +23°C° 0 mm 1 mps 693 mmHg 63%
23:00 +21°C° 0 mm 0 mps 693 mmHg 64%

Pasado mañana, 24 Octubre, Sábado

Tiempo Temperatura Precipitaciones Viento Presión Humedad
00:00 +20°C° 0 mm 0 mps 693 mmHg 65%
01:00 +20°C° 0 mm 0 mps 693 mmHg 65%
02:00 +20°C° 0 mm 0 mps 692 mmHg 66%
03:00 +20°C° 0 mm 0 mps 692 mmHg 67%
04:00 +19°C° 0 mm 0 mps 692 mmHg 67%
05:00 +19°C° 0 mm 0 mps 692 mmHg 68%
06:00 +21°C° 0 mm 0 mps 693 mmHg 65%
07:00 +22°C° 0 mm 0 mps 694 mmHg 63%
08:00 +23°C° 0 mm 0 mps 695 mmHg 61%
09:00 +25°C° 0 mm 0 mps 695 mmHg 56%
10:00 +28°C° 0 mm 1 mps 695 mmHg 51%
11:00 +30°C° 0 mm 1 mps 695 mmHg 46%
12:00 +30°C° 0 mm 1 mps 695 mmHg 46%
13:00 +30°C° 0 mm 2 mps 694 mmHg 45%
14:00 +30°C° 0 mm 2 mps 694 mmHg 45%
15:00 +28°C° 0 mm 2 mps 693 mmHg 50%
16:00 +27°C° 0 mm 2 mps 693 mmHg 55%
17:00 +26°C° 0 mm 2 mps 693 mmHg 60%
18:00 +25°C° 0 mm 2 mps 693 mmHg 59%
19:00 +24°C° 0 mm 2 mps 694 mmHg 57%
20:00 +24°C° 0 mm 2 mps 694 mmHg 56%
21:00 +23°C° 0 mm 1 mps 694 mmHg 55%
22:00 +23°C° 0 mm 1 mps 694 mmHg 55%
23:00 +23°C° 0 mm 1 mps 694 mmHg 54%

, 25 Octubre, Domingo

Tiempo Temperatura Precipitaciones Viento Presión Humedad
00:00 +20°C° 0 mm 0 mps 694 mmHg 55%
01:00 +20°C° 0 mm 0 mps 694 mmHg 56%
02:00 +19°C° 0 mm 0 mps 694 mmHg 57%
03:00 +19°C° 0 mm 0 mps 694 mmHg 58%
04:00 +19°C° 0 mm 0 mps 694 mmHg 59%
05:00 +21°C° 0 mm 1 mps 694 mmHg 59%
06:00 +22°C° 0 mm 1 mps 695 mmHg 58%
07:00 +24°C° 0 mm 1 mps 696 mmHg 56%
08:00 +26°C° 0 mm 1 mps 697 mmHg 54%
09:00 +27°C° 0 mm 1 mps 697 mmHg 51%
10:00 +28°C° 0 mm 1 mps 697 mmHg 47%
11:00 +29°C° 0 mm 1 mps 697 mmHg 43%
12:00 +29°C° 0 mm 2 mps 696 mmHg 43%
13:00 +30°C° 0 mm 2 mps 696 mmHg 44%
14:00 +30°C° 0 mm 2 mps 695 mmHg 44%
15:00 +28°C° 0 mm 2 mps 695 mmHg 49%
16:00 +27°C° 0 mm 2 mps 695 mmHg 54%
17:00 +26°C° 0 mm 2 mps 694 mmHg 59%
18:00 +25°C° 0 mm 2 mps 695 mmHg 58%
19:00 +24°C° 0 mm 2 mps 695 mmHg 56%
20:00 +24°C° 0 mm 2 mps 695 mmHg 55%
21:00 +23°C° 0 mm 1 mps 695 mmHg 55%
22:00 +23°C° 0 mm 1 mps 695 mmHg 55%
23:00 +21°C° 0 mm 0 mps 696 mmHg 55%

25 Octubre, Domingo

Tiempo Temperatura Precipitaciones Viento Presión Humedad
00:00 +20°C° 0 mm 0 mps 694 mmHg 55%
01:00 +20°C° 0 mm 0 mps 694 mmHg 56%
02:00 +19°C° 0 mm 0 mps 694 mmHg 57%
03:00 +19°C° 0 mm 0 mps 694 mmHg 58%
04:00 +19°C° 0 mm 0 mps 694 mmHg 59%
05:00 +21°C° 0 mm 1 mps 694 mmHg 59%
06:00 +22°C° 0 mm 1 mps 695 mmHg 58%
07:00 +24°C° 0 mm 1 mps 696 mmHg 56%
08:00 +26°C° 0 mm 1 mps 697 mmHg 54%
09:00 +27°C° 0 mm 1 mps 697 mmHg 51%
10:00 +28°C° 0 mm 1 mps 697 mmHg 47%
11:00 +29°C° 0 mm 1 mps 697 mmHg 43%
12:00 +29°C° 0 mm 2 mps 696 mmHg 43%
13:00 +30°C° 0 mm 2 mps 696 mmHg 44%
14:00 +30°C° 0 mm 2 mps 695 mmHg 44%
15:00 +28°C° 0 mm 2 mps 695 mmHg 49%
16:00 +27°C° 0 mm 2 mps 695 mmHg 54%
17:00 +26°C° 0 mm 2 mps 694 mmHg 59%
18:00 +25°C° 0 mm 2 mps 695 mmHg 58%
19:00 +24°C° 0 mm 2 mps 695 mmHg 56%
20:00 +24°C° 0 mm 2 mps 695 mmHg 55%
21:00 +23°C° 0 mm 1 mps 695 mmHg 55%
22:00 +23°C° 0 mm 1 mps 695 mmHg 55%
23:00 +21°C° 0 mm 0 mps 696 mmHg 55%

26 Octubre, Lunes

Tiempo Temperatura Precipitaciones Viento Presión Humedad
00:00 +20°C° 0 mm 0 mps 695 mmHg 57%
01:00 +20°C° 0 mm 0 mps 695 mmHg 58%
02:00 +19°C° 0 mm 0 mps 695 mmHg 60%
03:00 +21°C° 0 mm 1 mps 695 mmHg 60%
04:00 +21°C° 0 mm 1 mps 695 mmHg 60%
05:00 +21°C° 0 mm 1 mps 695 mmHg 61%
06:00 +22°C° 0 mm 1 mps 696 mmHg 60%
07:00 +24°C° 0 mm 2 mps 697 mmHg 59%
08:00 +25°C° 0 mm 2 mps 697 mmHg 59%
09:00 +27°C° 0 mm 2 mps 698 mmHg 53%
10:00 +28°C° 0 mm 2 mps 698 mmHg 47%
11:00 +29°C° 0 mm 3 mps 698 mmHg 41%
12:00 +30°C° 0 mm 3 mps 697 mmHg 40%
13:00 +30°C° 0 mm 3 mps 696 mmHg 39%
14:00 +30°C° 0 mm 3 mps 695 mmHg 38%
15:00 +28°C° 0 mm 3 mps 695 mmHg 45%
16:00 +26°C° 0 mm 2 mps 695 mmHg 51%
17:00 +25°C° 0 mm 2 mps 695 mmHg 58%
18:00 +24°C° 0 mm 2 mps 695 mmHg 56%
19:00 +23°C° 0 mm 2 mps 695 mmHg 54%
20:00 +21°C° 0 mm 2 mps 695 mmHg 52%
21:00 +22°C° 0 mm 1 mps 695 mmHg 50%
22:00 +22°C° 0 mm 1 mps 695 mmHg 47%
23:00 +22°C° 0 mm 1 mps 695 mmHg 45%

27 Octubre, Martes

Tiempo Temperatura Precipitaciones Viento Presión Humedad
00:00 +21°C° 0 mm 1 mps 695 mmHg 44%
01:00 +21°C° 0 mm 1 mps 695 mmHg 43%
02:00 +20°C° 0 mm 1 mps 694 mmHg 42%
03:00 +20°C° 0 mm 1 mps 694 mmHg 42%
04:00 +20°C° 0 mm 1 mps 694 mmHg 43%
05:00 +20°C° 0 mm 1 mps 694 mmHg 43%
06:00 +21°C° 0 mm 1 mps 695 mmHg 43%
07:00 +23°C° 0 mm 1 mps 696 mmHg 43%
08:00 +25°C° 0 mm 1 mps 697 mmHg 44%
09:00 +26°C° 0 mm 1 mps 697 mmHg 39%
10:00 +28°C° 0 mm 1 mps 697 mmHg 33%
11:00 +30°C° 0 mm 1 mps 697 mmHg 28%
12:00 +30°C° 0 mm 1 mps 697 mmHg 28%
13:00 +30°C° 0 mm 1 mps 696 mmHg 27%
14:00 +30°C° 0 mm 2 mps 695 mmHg 27%
15:00 +28°C° 0 mm 2 mps 695 mmHg 34%
16:00 +26°C° 0 mm 2 mps 695 mmHg 41%
17:00 +24°C° 0 mm 2 mps 695 mmHg 47%
18:00 +23°C° 0 mm 2 mps 695 mmHg 47%
19:00 +23°C° 0 mm 1 mps 695 mmHg 47%
20:00 +22°C° 0 mm 1 mps 695 mmHg 47%
21:00 +21°C° 0 mm 1 mps 695 mmHg 46%
22:00 +21°C° 0 mm 1 mps 695 mmHg 45%
23:00 +21°C° 0 mm 1 mps 695 mmHg 44%
Mostrar más

Necesitamos Su Consentimiento

Meteoprog y nuestros Proveedores de Servicios pueden almacenar y acceder a sus datos personales como cookies, identificadores de dispositivo u otras tecnologías similares de su dispositivo y procesar dichos datos para personalizar contenido y anuncios, además de ofrecer funciones de redes sociales y analizar el tráfico.

  • Almacenar y/o acceder a información en su dispositivo

    Se puede almacenar o acceder a cookies, identificadores de dispositivo u otra información de su dispositivo para los fines anteriormente indicados.

  • Anuncios y contenido personalizados, medición de anuncios y contenido, percepciones del público, y desarrollo de productos

    Los anuncios y el contenido pueden personalizarse en base a su perfil. Se pueden añadir más datos para personalizar mejor los anuncios y contenidos. Se puede medir el rendimiento de los anuncios y contenidos. Se puede obtener la percepción sobre el público que ha visto los anuncios y contenidos. Dichos datos pueden usarse para desarrollar o mejorar la experiencia del usuario, sistemas y software.

Al hacer clic en ‘Estoy De Acuerdo’ usted permitirá el uso de las cookies, identificadores de dispositivo, balizas web u otras tecnologías similares indicadas. Su configuración puede cambiarse desde el navegador de su dispositivo.

Para ciertos fines, los intereses legítimos pueden ser considerados por encima del consentimiento. Puede leer más sobre ello en nuestra Política de Privacidad y Cookies.